{"data":{"norad_id":59523,"epoch":"2026-05-24T17:34:36.232320Z","epoch_age_seconds":108364,"freshness":"FRESH","line1":"1 59523U 24073N   26144.73236380  .00000196  00000+0  16648-4 0  9993","line2":"2 59523  43.0027 248.7194 0001336 271.7237  88.3461 15.27579758117802","mean_motion":15.27579758,"eccentricity":0.0001336,"inclination_deg":43.0027,"raan_deg":248.7194,"arg_perigee_deg":271.7237,"mean_anomaly_deg":88.3461,"bstar":1.6648e-5,"rev_number":11780,"period_min":94.26676364744,"perigee_km":482.13316611557,"apogee_km":483.96647523405,"semimajor_km":6861.1868206748,"source":"CELESTRAK","updated_at":"2026-05-25T13:38:18.976037Z"}}